Flag for Spain Weather past 2 weeks in Bilbao, Spain

Now
72 °F

Clear.


Feels Like: 71 °F
Forecast: 69 / 94 °F
Wind: No wind

Location: Bilbao / Sondica

Current Time: Jun 30, 2015 at 1:39:32 AM

Latest Report: Jun 29, 2015 at 11:30 PM


Visibility: 10 mi

Pressure: 30.01 "Hg

Humidity: 83%

Dew point: 66 °F

Location of BilbaoLocation

Historic Weather in Bilbao — Graph

°F

Bilbao temperature yesterday

Maximum temperature yesterday: 86 °F (at 4:00 PM)
Minimum temperature yesterday: 68 °F (at 5:00 AM)
Average temperature yesterday: 76 °F

Past Weeks' High & Low Weather Summary

 TemperatureHumidityPressure
High90 °F (Jun 25, 2:30 PM)100% (Jun 15, 8:30 AM)30.36 "Hg (Jun 15, 8:30 AM)
Low55 °F (Jun 18, 6:00 AM)27% (Jun 25, 2:30 PM)29.98 "Hg (Jun 22, 9:30 AM)
Average69 °F75%30.17 "Hg
* Reported Jun 14 11:00 PM — Jun 29 11:30 PM, Bilbao, Weather by CustomWeather, © 2015

Note: Actual official high and low records may vary slightly from our data, if they occured in-between our weather recording intervals... More about our weather records

Advertising

Bilbao weather history for previous 24 hours

 ConditionsComfort  
Time TempWeatherWind HumidityBarometerVisibility
11:30 PM
Mon, Jun 29
72 °FClear.No wind83%30.01 "Hg10 mi
11:00 PM72 °FClear.3 mph83%30.04 "Hg10 mi
10:30 PM72 °FPassing clouds.3 mph83%30.01 "HgN/A
10:00 PM73 °FPassing clouds.3 mph78%30.01 "HgN/A
9:30 PM75 °FPassing clouds.6 mph74%30.01 "HgN/A
9:00 PM77 °FPassing clouds.7 mph74%30.01 "HgN/A
8:30 PM79 °FSunny.8 mph70%30.01 "Hg10 mi
8:00 PM81 °FPassing clouds.6 mph66%30.01 "HgN/A
7:30 PM82 °FPassing clouds.6 mph62%30.01 "HgN/A
7:00 PM82 °FSunny.8 mph62%30.04 "Hg10 mi
6:30 PM82 °FPassing clouds.7 mph62%30.04 "HgN/A
6:00 PM82 °FPassing clouds.9 mph62%30.04 "HgN/A
5:30 PM82 °FPassing clouds.9 mph62%30.04 "HgN/A
5:00 PM84 °FPassing clouds.9 mph58%30.04 "HgN/A
4:30 PM84 °FPassing clouds.7 mph58%30.07 "HgN/A
4:00 PM86 °FSunny.1 mph55%30.07 "Hg10 mi
3:30 PM84 °FSunny.3 mph55%30.07 "Hg10 mi
3:00 PM82 °FSunny.6 mph58%30.09 "Hg10 mi
2:30 PM82 °FPassing clouds.7 mph58%30.09 "HgN/A
2:00 PM81 °FSunny.6 mph58%30.12 "Hg10 mi
1:30 PM79 °FPassing clouds.7 mph61%30.12 "HgN/A
1:00 PM79 °FPassing clouds.8 mph61%30.15 "HgN/A
12:30 PM75 °FPassing clouds.6 mph69%30.15 "HgN/A
12:00 PM75 °FBroken clouds.5 mph65%30.15 "HgN/A
11:30 AM73 °FBroken clouds.6 mph69%30.18 "HgN/A
11:00 AM73 °FBroken clouds.6 mph74%30.18 "HgN/A
10:30 AM72 °FBroken clouds.3 mph78%30.18 "HgN/A
10:00 AM72 °FBroken clouds.3 mph78%30.18 "HgN/A
9:30 AM72 °FBroken clouds.5 mph73%30.18 "HgN/A
9:00 AM70 °FBroken clouds.5 mph78%30.18 "HgN/A
8:30 AM70 °FBroken clouds.3 mph83%30.18 "HgN/A
8:00 AM70 °FBroken clouds.2 mph83%30.18 "HgN/A
7:30 AM70 °FPartly cloudy.3 mph83%30.18 "HgN/A
7:00 AM70 °FPartly cloudy.3 mph83%30.18 "HgN/A
6:30 AM68 °FPartly cloudy.No wind88%30.18 "HgN/A
6:00 AM68 °FPartly cloudy.No wind88%30.18 "HgN/A
5:30 AM68 °FPartly cloudy.No wind88%30.18 "HgN/A
5:00 AM68 °FPartly cloudy.No wind88%30.18 "HgN/A
Weather by CustomWeather, © 2015

See weather overviewHow to use our weather pages